Volver al catálogo

CZ-6A DEB

ActivoPO
NORAD 54282·DEBRIS·🇨🇳 China

Lanzado Nov 11, 2022 desde Taiyuan Satellite Launch Center

Loading…

Próximos Pases (próximas 24 horas)

TLE

ActualizadoSource: Space-Track

Época: Sep 14, 2026, 22:12 UTC

1 54282U 22151Z   26257.92559104  .00016552  00000-0  20028-2 0  9992
2 54282  98.5760 319.8395 0049774   4.9640 355.2055 14.82869870203159

Sigue CZ-6A DEB en tiempo real con AllMySat

Download on the App Store